[[{"header":{"parameterUnit":"m.s-1","parameterCategory":1,"la1":30.2992,"la2":30.254,"lo1":-89.0895,"lo2":-89.0443,"dy":0.0025,"dx":0.0025,"nx":19,"ny":19,"refTime":"2026-05-23T21:00:00:Z","depth":0,"parameterNumber":2,"parameterNumberName":"U-component_of_WINDS"},"data":[0,0,0,-1.0303,-1.0304,-1.0316,-1.0316,-1.035,-1.035,0,0,0,0,0,0,0,0,0,0,0,-1.0308,-1.0309,-1.0303,-1.0304,-1.0316,-1.0316,-1.035,-1.035,0,0,0,0,0,0,0,0,0,0,0,-1.0308,-1.0309,-1.0309,-1.0304,-1.0316,-1.0316,-1.035,-1.0334,0,0,0,0,0,0,0,0,0,0,-1.032,-1.0332,-1.0309,-1.0309,-1.0304,-1.0316,-1.0316,-1.0333,-1.0335,-1.0351,0,-1.0365,0,-1.0358,-1.0353,-1.0353,0,0,0,-1.0298,-1.033,-1.0326,-1.0309,-1.0304,-1.0316,-1.0309,-1.0334,-1.0337,-1.0354,-1.0366,-1.0366,-1.0359,-1.0354,-1.0354,-1.0459,-1.046,0,0,-1.0297,-1.0316,-1.0324,-1.0328,-1.0324,-1.0309,-1.0309,-1.0335,-1.035,-1.0366,-1.0367,-1.0359,-1.0354,-1.0354,-1.0458,-1.0459,0,0,0,-1.0299,-1.0316,-1.031,-1.0327,-1.0327,-1.0309,-1.031,-1.0349,-1.0346,-1.0367,-1.036,-1.0354,-1.0355,-1.0458,-1.0459,-1.0515,0,0,0,-1.0299,-1.0317,-1.031,-1.0321,-1.0327,-1.0338,-1.0324,-1.0344,-1.0346,-1.036,-1.0354,-1.0355,-1.0457,-1.0458,-1.0511,-1.0539,0,0,0,-1.0305,-1.0317,-1.0322,-1.0322,-1.0328,-1.0337,-1.0335,-1.0344,-1.0342,-1.0354,-1.0355,-1.0456,-1.0458,-1.0508,-1.0534,-1.0573,0,0,0,-1.0317,-1.0371,-1.0323,-1.0381,-1.0328,-1.0371,-1.0335,-1.0366,-1.0382,-1.0354,-1.0457,-1.0459,-1.0507,-1.053,-1.057,-1.061,-1.0628,0,0,-1.0396,-1.0382,-1.0414,-1.0371,-1.0427,-1.0367,-1.0432,-1.043,-1.0416,-1.0446,-1.0448,-1.0512,-1.0533,-1.0572,-1.072,-1.0734,0,0,0,-1.0446,-1.047,-1.0481,-1.0496,-1.0495,-1.0497,-1.0483,-1.0483,-1.0507,-1.0434,-1.0535,-1.0547,-1.057,-1.0588,-1.0601,-1.0619,-1.0467,-1.0467,-1.0467,-1.0586,-1.0562,-1.0615,-1.0594,-1.061,-1.0595,-1.0606,-1.0603,-1.0576,-1.06,-1.061,-1.0702,-1.0724,-1.0733,-1.0753,-1.0628,-1.0628,-1.0628,-1.0628,-1.0701,-1.0732,-1.0693,-1.0731,-1.0707,-1.0739,-1.0728,-1.0707,-1.0735,-1.0693,-1.0711,-1.0668,-1.075,-1.0766,-1.0632,-1.0632,-1.0631,-1.0631,-1.063,-1.0792,-1.0802,-1.0799,-1.082,-1.0839,-1.0815,-1.0844,-1.082,-1.0799,-1.0817,-1.0826,-1.0825,-1.0823,-1.0822,-1.0823,-1.0823,-1.0823,-1.0824,-1.0824,-1.0887,-1.0882,-1.0908,-1.0911,-1.0918,-1.0925,-1.0911,-1.0918,-1.0921,-1.0902,-1.0902,-1.0874,-1.0761,-1.0734,-1.0829,-1.0828,-1.0827,-1.0827,-1.0826,-1.1016,-1.0983,-1.1023,-1.1031,-1.1033,-1.1054,-1.1023,-1.104,-1.1043,-1.1058,-1.1026,-1.0945,-1.093,-1.092,-1.0898,-1.1029,-1.1029,-1.1029,-1.1029,-1.1094,-1.1083,-1.1119,-1.1132,-1.1143,-1.1119,-1.1168,-1.1157,-1.1142,-1.1143,-1.112,-1.1088,-1.1079,-1.1069,-1.1056,-1.1035,-1.1198,-1.1198,-1.1198,-1.1173,-1.1162,-1.1207,-1.1189,-1.1189,-1.1191,-1.1236,-1.1255,-1.1231,-1.1205,-1.1144,-1.1136,-1.1084,-1.1068,-1.1043,-1.1023,-1.0984,0,0]},{"header":{"parameterUnit":"m.s-1","parameterCategory":1,"la1":30.2992,"la2":30.254,"lo1":-89.0895,"lo2":-89.0443,"dy":0.0025,"dx":0.0025,"nx":19,"ny":19,"refTime":"2026-05-23T21:00:00:Z","depth":0,"parameterNumber":3,"parameterNumberName":"V-component_of_WINDS"},"data":[0,0,0,2.8722,2.8726,2.8924,2.8925,2.917,2.9173,0,0,0,0,0,0,0,0,0,0,0,2.8661,2.8662,2.8722,2.8727,2.8924,2.8925,2.917,2.9173,0,0,0,0,0,0,0,0,0,0,0,2.866,2.8662,2.8664,2.8728,2.8924,2.8925,2.917,2.9023,0,0,0,0,0,0,0,0,0,0,2.8832,2.8773,2.8662,2.8664,2.8729,2.8924,2.8925,2.9016,2.9032,2.9078,0,2.912,0,2.915,2.9189,2.919,0,0,0,2.8729,2.876,2.8815,2.8664,2.873,2.8923,2.8836,2.9025,2.9043,2.91,2.9124,2.9133,2.9154,2.919,2.9191,2.9454,2.9455,0,0,2.8718,2.8695,2.8803,2.8827,2.8797,2.8829,2.8842,2.9036,2.906,2.9125,2.9139,2.9158,2.9192,2.9194,2.9453,2.9454,0,0,0,2.8685,2.8687,2.8738,2.8817,2.8853,2.8835,2.8849,2.9052,2.907,2.9141,2.9161,2.9193,2.9196,2.9451,2.9453,2.9486,0,0,0,2.8679,2.8668,2.8733,2.8721,2.8849,2.8955,2.886,2.9057,2.9079,2.916,2.9193,2.9199,2.945,2.9452,2.9482,2.9505,0,0,0,2.8649,2.8665,2.8692,2.872,2.8804,2.8952,2.8982,2.9062,2.9091,2.919,2.9199,2.9449,2.9452,2.9479,2.95,2.9566,0,0,0,2.861,2.8719,2.8692,2.8821,2.8802,2.8971,2.8981,2.9109,2.9197,2.9195,2.945,2.9453,2.9478,2.9497,2.9562,2.9616,2.9637,0,0,2.8735,2.8733,2.8811,2.8793,2.8961,2.8943,2.9116,2.9219,2.925,2.9383,2.939,2.9483,2.9499,2.9565,2.9763,2.9779,0,0,0,2.8842,2.8898,2.8947,2.903,2.9111,2.9182,2.9261,2.9298,2.9413,2.9314,2.9526,2.9537,2.9576,2.9603,2.9617,2.9651,2.9465,2.9464,2.9464,2.8985,2.9017,2.9147,2.9203,2.9283,2.9363,2.943,2.9494,2.9505,2.9554,2.9594,2.971,2.9741,2.9751,2.9787,2.9626,2.9626,2.9626,2.9627,2.9169,2.9251,2.9261,2.9391,2.9424,2.9533,2.9613,2.9616,2.9721,2.9684,2.972,2.9675,2.9768,2.9801,2.9629,2.9629,2.9629,2.9628,2.9628,2.9265,2.931,2.9354,2.9475,2.9565,2.9618,2.9718,2.9745,2.9772,2.9808,2.9851,2.9851,2.9853,2.9827,2.9827,2.9828,2.9828,2.9828,2.9829,2.9346,2.9395,2.9476,2.957,2.9625,2.9702,2.9782,2.9837,2.9905,2.9917,2.9917,2.9921,2.9772,2.9733,2.9835,2.9834,2.9833,2.9832,2.9832,2.9519,2.9484,2.961,2.9665,2.9776,2.9862,2.9896,3.0005,3.0055,3.0103,3.0099,2.9985,2.9985,2.9974,2.9942,3.0093,3.0093,3.0093,3.0093,2.9599,2.9602,2.9735,2.9822,2.991,2.9952,3.0091,3.0153,3.0211,3.0244,3.0226,3.0186,3.0174,3.0182,3.0166,3.0137,3.0333,3.0333,3.0333,2.9707,2.9719,2.9832,2.9889,2.9977,3.0052,3.0183,3.0281,3.034,3.0344,3.0269,3.0259,3.0195,3.0173,3.0174,3.015,3.0096,0,0]}]]